Location: Lane
(33.5226°N, 79.8788°W)
Time: 18:33:08
(UTC+00:00)

Courier 1B Rocket - Pass Details

Date: 13 October 2022
Orbit: 920 x 1202 km, 28.3° (Epoch: 01 December)

Event Time Altitude Azimuth Distance (km) Brightness Sun altitude
Rises 21:59:29 0° 263° (W) 4,051 10.3 9.1°
Reaches altitude 10° 22:02:26 10° 260° (W) 3,062 10.7 8.5°
Maximum altitude 22:09:49 58° 183° (S) 1,280 5.9 7.0°
Drops below altitude 10° 22:16:44 10° 106° (ESE) 2,867 7.0 5.6°
Sets 22:19:24 0° 103° (ESE) 3,778 7.5 5.1°
